Location: Casilda
(33.0440°S, 61.1680°W)
Time: 08:47:26
(UTC-03:00)

ISS - Pass Details

Date: 22 September 2021
Orbit: 417 x 422 km, 51.6° (Epoch: 28 September)

Event Time Altitude Azimuth Distance (km) Brightness Sun altitude
Exits shadow 05:45:43 25° 319° (NW) 915 -2.5 -15.0°
Maximum altitude 05:47:37 82° 45° (NE) 438 -3.7 -14.6°
Drops below altitude 10° 05:51:04 10° 132° (SE) 1,534 0.0 -13.9°
Sets 05:53:11 0° 133° (SE) 2,405 1.1 -13.5°
